Location: Buckland
(65.9785°N, 161.1281°W)
Time: 07:39:11
(UTC+00:00)

Transit 2A Rocket - Pass Details

Date: 02 December 2020
Orbit: 592 x 910 km, 66.7° (Epoch: 21 January)

Event Time Altitude Azimuth Distance (km) Brightness Sun altitude
Exits shadow 13:15:03 19° 73° (ENE) 1,759 7.3 -39.1°
Drops below altitude 10° 13:16:35 10° 66° (ENE) 2,287 8.1 -39.0°
Sets 13:18:56 0° 60° (ENE) 3,162 9.1 -38.8°
